EW1631 Weather Reports


Display with metric or nautical units.
time (UTC)temp
F
wind
direction
speed
MPH
gust
MPH
rain 1hr
in
rain 24hr
in
rain mn
in
humidity
%
barometer
mb
20260904083057 84 323 9.0 17.0 0.00 0.00 0.00 18 1004.9
20260904081551 84 298 12.0 17.0 0.00 0.00 0.00 17 1004.9
20260904080049 85 265 11.0 18.0 0.00 0.00 0.00 16 1005.1
20260904074557 84 303 10.0 17.0 0.00 0.00 0.00 16 1005.1
20260904073048 84 329 8.0 16.0 0.00 0.00 0.00 17 1005.4
20260904071546 84 294 10.0 19.0 0.00 0.00 0.00 19 1005.3
20260904070043 84 304 13.0 18.0 0.00 0.00 0.00 19 1005.1
20260904064542 85 323 12.0 20.0 0.00 0.00 0.00 18 1005.2
20260904063054 85 309 12.0 19.0 0.00 0.00 0.00 18 1005.2
20260904061542 85 284 13.0 20.0 0.00 0.00 0.00 19 1005.2
20260904060105 85 331 13.0 21.0 0.00 0.00 0.00 20 1005.1
20260904054541 85 298 15.0 22.0 0.00 0.00 0.00 21 1005.2
20260904053042 85 299 15.0 22.0 0.00 0.00 0.00 21 1005.1
20260904051545 85 288 16.0 25.0 0.00 0.00 0.00 23 1005.2
20260904050043 85 300 18.0 24.0 0.00 0.00 0.00 23 1005.1
20260904044549 86 303 17.0 23.0 0.00 0.00 0.00 21 1005.2
20260904043043 86 299 13.0 21.0 0.00 0.00 0.00 23 1005.3
20260904041540 87 298 13.0 21.0 0.00 0.00 0.00 22 1005.1
20260904040041 87 293 12.0 19.0 0.00 0.00 0.00 22 1005.1
20260904034555 87 270 10.0 20.0 0.00 0.00 0.00 25 1005.0
20260904033040 88 263 8.0 15.0 0.00 0.00 0.00 25 1005.0
20260904031538 88 300 9.0 15.0 0.00 0.00 0.00 25 1004.6
20260904030040 89 285 9.0 15.0 0.00 0.00 0.00 25 1004.3
20260904024538 90 273 9.0 16.0 0.00 0.00 0.00 24 1004.0
20260904023037 90 267 8.0 16.0 0.00 0.00 0.00 25 1004.1
20260904021537 91 290 10.0 16.0 0.00 0.00 0.00 25 1004.0
20260904020039 92 303 8.0 17.0 0.00 0.00 0.00 21 1003.7
20260904014537 93 280 10.0 18.0 0.00 0.00 0.00 21 1003.7
20260904013035 94 312 13.0 20.0 0.00 0.00 0.00 20 1003.7
20260904011538 95 279 10.0 19.0 0.00 0.00 0.00 20 1003.8
20260904010044 96 296 13.0 23.0 0.00 0.00 0.00 19 1003.9
20260904004536 97 267 14.0 22.0 0.00 0.00 0.00 19 1003.9
20260904003033 98 288 14.0 22.0 0.00 0.00 0.00 17 1003.8
20260904001530 98 262 12.0 19.0 0.00 0.00 0.00 18 1003.9
20260904000029 99 295 12.0 19.0 0.00 0.00 0.00 18 1004.0
20260903234534 99 302 11.0 20.0 0.00 0.00 0.00 18 1004.1
20260903233025 99 292 13.0 24.0 0.00 0.00 0.00 18 1004.2
20260903231525 100 273 12.0 21.0 0.00 0.00 0.00 15 1004.4
20260903230025 101 261 9.0 27.0 0.00 0.00 0.00 13 1004.5
20260903224526 101 294 13.0 19.0 0.00 0.00 0.00 12 1004.5
20260903223037 101 311 10.0 20.0 0.00 0.00 0.00 12 1004.7
20260903221529 102 286 12.0 21.0 0.00 0.00 0.00 11 1004.9
20260903220037 102 267 12.0 19.0 0.00 0.00 0.00 10 1005.0
20260903214525 102 300 11.0 22.0 0.00 0.00 0.00 10 1005.1
20260903213016 102 281 11.0 21.0 0.00 0.00 0.00 10 1005.2
20260903211526 101 288 13.0 23.0 0.00 0.00 0.00 10 1005.3
20260903210010 101 292 11.0 20.0 0.00 0.00 0.00 9 1005.5
20260903204508 100 293 11.0 19.0 0.00 0.00 0.00 9 1005.6
20260903203008 101 302 11.0 19.0 0.00 0.00 0.00 9 1005.8
20260903201506 100 281 11.0 18.0 0.00 0.00 0.00 9 1006.2
20260903200002 100 303 10.0 18.0 0.00 0.00 0.00 8 1006.3
20260903194600 100 301 12.0 19.0 0.00 0.00 0.00 8 1006.5
20260903193056 99 252 7.0 11.0 0.00 0.00 0.00 8 1006.8
20260903191553 99 92 4.0 9.0 0.00 0.00 0.00 6 1007.1
20260903190050 98 132 6.0 9.0 0.00 0.00 0.00 7 1007.4
20260903184548 97 186 5.0 11.0 0.00 0.00 0.00 7 1007.8
20260903183044 96 57 4.0 11.0 0.00 0.00 0.00 7 1008.1
20260903181540 96 71 6.0 12.0 0.00 0.00 0.00 7 1008.3
20260903180037 95 209 5.0 12.0 0.00 0.00 0.00 7 1008.4
20260903174552 94 175 3.0 9.0 0.00 0.00 0.00 8 1008.5
20260903173029 93 162 6.0 10.0 0.00 0.00 0.00 8 1008.4
20260903171529 92 147 7.0 11.0 0.00 0.00 0.00 8 1008.4
20260903170022 91 133 5.0 10.0 0.00 0.00 0.00 8 1008.5
20260903164516 90 105 6.0 15.0 0.00 0.00 0.00 9 1008.5
20260903163014 89 135 6.0 9.0 0.00 0.00 0.00 9 1008.3
20260903161519 89 142 6.0 10.0 0.00 0.00 0.00 9 1008.2
20260903160008 88 144 8.0 12.0 0.00 0.00 0.00 9 1008.2
20260903154602 89 194 6.0 13.0 0.00 0.00 0.00 9 1008.3
20260903153057 88 304 11.0 17.0 0.00 0.00 0.00 10 1008.1
20260903151557 86 292 6.0 13.0 0.00 0.00 0.00 11 1008.3
20260903150055 85 294 3.0 9.0 0.00 0.00 0.00 8 1008.3
20260903144547 86 185 3.0 9.0 0.00 0.00 0.00 11 1008.2
20260903143045 85 294 9.0 14.0 0.00 0.00 0.00 12 1008.0
20260903141541 84 310 10.0 15.0 0.00 0.00 0.00 12 1007.8
20260903140035 83 288 11.0 15.0 0.00 0.00 0.00 12 1007.6
20260903134532 83 292 10.0 15.0 0.00 0.00 0.00 12 1007.5
20260903133029 82 299 7.0 13.0 0.00 0.00 0.00 12 1007.6
20260903131527 83 219 3.0 11.0 0.00 0.00 0.00 12 1007.5
20260903130027 83 254 5.0 14.0 0.00 0.00 0.00 13 1007.4
20260903124526 84 249 5.0 13.0 0.00 0.00 0.00 13 1007.2
20260903123029 84 213 5.0 16.0 0.00 0.00 0.00 12 1007.3
20260903121528 84 229 9.0 19.0 0.00 0.00 0.00 12 1007.4
20260903120029 84 229 10.0 18.0 0.00 0.00 0.00 12 1007.3
20260903114525 83 235 7.0 14.0 0.00 0.00 0.00 11 1007.3
20260903113026 81 243 8.0 14.0 0.00 0.00 0.00 10 1007.2
20260903111539 82 295 8.0 12.0 0.00 0.00 0.00 7 1007.3
20260903110020 83 283 10.0 17.0 0.00 0.00 0.00 6 1007.1
20260903104520 83 281 10.0 18.0 0.00 0.00 0.00 5 1007.3
20260903103020 83 257 8.0 14.0 0.00 0.00 0.00 4 1007.3
20260903101519 83 290 6.0 13.0 0.00 0.00 0.00 4 1007.5
20260903100018 83 267 9.0 14.0 0.00 0.00 0.00 4 1007.4
20260903094517 83 279 9.0 19.0 0.00 0.00 0.00 4 1007.3
20260903093029 84 278 9.0 17.0 0.00 0.00 0.00 4 1007.2
20260903091528 84 286 9.0 18.0 0.00 0.00 0.00 5 1007.3
20260903090012 84 288 8.0 18.0 0.00 0.00 0.00 5 1007.5
20260903084509 83 266 11.0 21.0 0.00 0.00 0.00 7 1007.7